Location: Bangkok
(13.7500°N, 100.5170°E)
Time: 07:56:31
(UTC+07:00)

HST - Visible Passes

Search period start: 30 July 2014 00:00
Search period end: 09 August 2014 00:00
Orbit: 547 x 552 km, 28.5° (Epoch: 28 July)

Date Brightness Start Highest point End Pass type
(mag) Time Alt. Az. Time Alt. Az. Time Alt. Az.
30 Jul 1.8 20:17:41 10° NW 20:21:31 34° NNE 20:21:55 33° NE visible
31 Jul 1.3 20:10:43 10° NW 20:14:46 47° NNE 20:15:24 43° NE visible
01 Aug 0.9 20:03:49 10° WNW 20:07:58 67° NNE 20:08:55 49° E visible
02 Aug 0.7 19:56:58 10° WNW 20:01:10 84° SSW 20:02:29 43° ESE visible
03 Aug 1.1 19:50:13 10° WNW 19:54:20 56° SSW 19:56:06 31° SE visible
04 Aug 1.8 19:43:35 10° W 19:47:29 38° SSW 19:49:46 21° SSE visible
05 Aug 2.4 19:37:07 10° W 19:40:37 26° SSW 19:43:29 13° SSE visible
06 Aug 3.0 19:30:54 10° WSW 19:33:45 18° SSW 19:36:36 10° SSE visible
07 Aug 3.3 19:25:15 10° SW 19:26:54 12° SSW 19:28:33 10° S visible
